User: anonymous   Login
Location: Blanot
(47.1713°N, 4.2340°E)
Time: 22:27:43
(UTC+00:00)
Language:

Cosmos 1238 Rocket - Orbit

View from above orbital plane
View from above orbital plane
View from above satellite
View from above satellite

Ground track
Ground track

The orbit data is extracted from the following two-line orbital elements,

1 12139U 81003B   20263.31267945  .00000951  00000-0  44259-4 0  9991
2 12139  82.9446 239.7690 0460301 289.8753  65.3408 14.57425318 20113
Epoch (UTC): 19 September 2020 07:30:15
Eccentricity: 0.0460301
inclination: 82.9446°
perigee height: 375 km
apogee height: 1027 km
right ascension of ascending node: 239.7690°
argument of perigee: 289.8753°
revolutions per day: 14.57425318
mean anomaly at epoch: 65.3408°
orbit number at epoch: 2011

The dashed part of the orbit path shows where the satellite is in the earth's shadow,  

DLR